Zurück zum Katalog

OPS 4682 DEB

AktivPO
NORAD 18534·DEBRIS·🇺🇸 United States

Gestartet Apr 3, 1965 von Vandenberg Space Force Base

Loading…

Nächste Überflüge (nächste 24 Stunden)

TLE

AktuellSource: Space-Track

Epoche: Sep 14, 2026, 15:05 UTC

1 18534U 65027AE  26257.62903024  .00000060  00000-0  18350-3 0  9995
2 18534  90.2819  26.2296 0027953 230.3993 143.6830 12.96223816852587

Verfolge OPS 4682 DEB in Echtzeit mit AllMySat

Download on the App Store